| time (UTC) | temp F | wind direction | speed MPH | gust MPH | rain 1hr in | rain 24hr in | rain mn in | humidity % | barometer mb |
| 20260503190039 | 49 | 140 | 8.0 | 12.0 | 0.03 | 0.09 | 0.09 | 84 | 1011.6 |
| 20260503184529 | 49 | 165 | 5.0 | 9.0 | 0.05 | 0.09 | 0.09 | 83 | 1012.3 |
| 20260503183026 | 49 | 192 | 5.0 | 11.0 | 0.05 | 0.09 | 0.09 | 81 | 1012.9 |
| 20260503181529 | 49 | 224 | 9.0 | 21.0 | 0.06 | 0.08 | 0.08 | 80 | 1013.6 |
| 20260503180028 | 49 | 213 | 5.0 | 12.0 | 0.06 | 0.06 | 0.06 | 82 | 1013.7 |
| 20260503174530 | 49 | 221 | 6.0 | 12.0 | 0.04 | 0.04 | 0.04 | 80 | 1014.0 |
| 20260503173044 | 49 | 213 | 9.0 | 18.0 | 0.03 | 0.03 | 0.03 | 77 | 1014.2 |
| 20260503171526 | 51 | 252 | 9.0 | 17.0 | 0.01 | 0.01 | 0.01 | 73 | 1014.3 |
| 20260503081543 | 42 | 215 | 4.0 | 10.0 | 0.00 | 0.00 | 0.00 | 65 | 1015.2 |
| 20260503071536 | 43 | 214 | 4.0 | 8.0 | 0.00 | 0.00 | 0.00 | 65 | 1015.4 |
| 20260503054535 | 44 | 198 | 4.0 | 7.0 | 0.00 | 0.00 | 0.00 | 63 | 1016.1 |
| 20260503053030 | 44 | 233 | 4.0 | 7.0 | 0.00 | 0.00 | 0.00 | 63 | 1016.2 |
| 20260503051529 | 43 | 199 | 2.0 | 5.0 | 0.00 | 0.00 | 0.00 | 64 | 1016.3 |
| 20260503050029 | 44 | 197 | 3.0 | 7.0 | 0.00 | 0.00 | 0.00 | 63 | 1016.5 |
| 20260503044538 | 44 | 177 | 3.0 | 6.0 | 0.00 | 0.00 | 0.00 | 63 | 1016.4 |
| 20260503043028 | 44 | 194 | 2.0 | 4.0 | 0.00 | 0.00 | 0.00 | 64 | 1016.3 |
| 20260503041528 | 44 | 194 | 2.0 | 4.0 | 0.00 | 0.00 | 0.00 | 63 | 1016.5 |
| 20260503040029 | 44 | 190 | 2.0 | 5.0 | 0.00 | 0.00 | 0.00 | 64 | 1016.6 |
| 20260503034528 | 44 | 186 | 3.0 | 5.0 | 0.00 | 0.00 | 0.00 | 63 | 1016.7 |
| 20260503033029 | 45 | 198 | 2.0 | 6.0 | 0.00 | 0.00 | 0.00 | 61 | 1016.6 |
| 20260503031529 | 46 | 240 | 1.0 | 3.0 | 0.00 | 0.00 | 0.00 | 59 | 1016.7 |
| 20260503030029 | 46 | 0 | 0.0 | 4.0 | 0.00 | 0.00 | 0.00 | 59 | 1016.7 |
| 20260503024530 | 46 | 243 | 1.0 | 3.0 | 0.00 | 0.00 | 0.00 | 59 | 1016.8 |
| 20260503023031 | 46 | 243 | 2.0 | 4.0 | 0.00 | 0.00 | 0.00 | 59 | 1016.8 |
| 20260503021529 | 46 | 243 | 1.0 | 3.0 | 0.00 | 0.00 | 0.00 | 59 | 1016.6 |
| 20260503020027 | 46 | 243 | 1.0 | 3.0 | 0.00 | 0.00 | 0.00 | 60 | 1016.6 |
| 20260503014528 | 45 | 0 | 0.0 | 0.0 | 0.00 | 0.00 | 0.00 | 66 | 1016.6 |
| 20260503013035 | 46 | 0 | 0.0 | 0.0 | 0.00 | 0.00 | 0.00 | 59 | 1016.5 |
| 20260503011530 | 47 | 0 | 0.0 | 1.0 | 0.00 | 0.00 | 0.00 | 57 | 1016.4 |
| 20260503010028 | 49 | 0 | 0.0 | 2.0 | 0.00 | 0.00 | 0.00 | 51 | 1016.5 |
| 20260503004530 | 51 | 243 | 0.0 | 2.0 | 0.00 | 0.00 | 0.00 | 46 | 1016.4 |
| 20260503003026 | 52 | 243 | 1.0 | 3.0 | 0.00 | 0.00 | 0.00 | 43 | 1016.6 |
| 20260503001526 | 52 | 0 | 0.0 | 2.0 | 0.00 | 0.00 | 0.00 | 47 | 1016.6 |
| 20260503000036 | 52 | 243 | 1.0 | 4.0 | 0.00 | 0.00 | 0.00 | 42 | 1016.4 |
| 20260502234531 | 53 | 294 | 1.0 | 6.0 | 0.00 | 0.00 | 0.00 | 42 | 1016.6 |
| 20260502233028 | 53 | 292 | 5.0 | 8.0 | 0.00 | 0.00 | 0.00 | 40 | 1016.6 |
| 20260502231527 | 53 | 300 | 2.0 | 8.0 | 0.00 | 0.00 | 0.00 | 41 | 1016.6 |
| 20260502230031 | 53 | 284 | 4.0 | 7.0 | 0.00 | 0.00 | 0.00 | 41 | 1016.7 |
| 20260502224530 | 53 | 340 | 2.0 | 6.0 | 0.00 | 0.00 | 0.00 | 38 | 1016.7 |
| 20260502223028 | 53 | 306 | 3.0 | 7.0 | 0.00 | 0.00 | 0.00 | 39 | 1016.8 |
| 20260502221534 | 53 | 298 | 5.0 | 9.0 | 0.00 | 0.00 | 0.00 | 38 | 1016.8 |
| 20260502220028 | 53 | 226 | 4.0 | 8.0 | 0.00 | 0.00 | 0.00 | 40 | 1016.8 |
| 20260502214527 | 53 | 146 | 4.0 | 8.0 | 0.00 | 0.00 | 0.00 | 41 | 1016.9 |
| 20260502213028 | 52 | 302 | 3.0 | 7.0 | 0.00 | 0.00 | 0.00 | 39 | 1016.9 |
| 20260502211530 | 52 | 325 | 3.0 | 8.0 | 0.00 | 0.00 | 0.00 | 40 | 1017.0 |
| 20260502210030 | 52 | 232 | 3.0 | 12.0 | 0.00 | 0.00 | 0.00 | 41 | 1017.1 |
| 20260502204527 | 52 | 252 | 4.0 | 9.0 | 0.00 | 0.00 | 0.00 | 42 | 1017.2 |
| 20260502203027 | 54 | 39 | 0.0 | 8.0 | 0.00 | 0.00 | 0.00 | 49 | 1017.4 |
| 20260502201531 | 53 | 302 | 5.0 | 9.0 | 0.00 | 0.00 | 0.00 | 40 | 1017.5 |
| 20260502200030 | 53 | 330 | 7.0 | 12.0 | 0.00 | 0.00 | 0.00 | 43 | 1017.6 |
| 20260502194528 | 52 | 85 | 2.0 | 10.0 | 0.00 | 0.00 | 0.00 | 43 | 1017.8 |
| 20260502193030 | 51 | 352 | 5.0 | 12.0 | 0.00 | 0.00 | 0.00 | 44 | 1018.0 |
| 20260502191528 | 53 | 321 | 5.0 | 10.0 | 0.00 | 0.00 | 0.00 | 46 | 1018.2 |